DW3929 Weather Reports


Display with metric or nautical units.
time (UTC)temp
F
wind
direction
speed
MPH
gust
MPH
rain 1hr
in
rain 24hr
in
rain mn
in
humidity
%
barometer
mb
20260505011353 77 360 5.0 9.0 0.00 0.00 0.00 78 1008.3
20260505010832 78 360 7.0 11.0 0.00 0.00 0.00 78 1008.2
20260505010333 78 360 6.0 11.0 0.00 0.00 0.00 78 1008.2
20260505005814 78 360 6.0 12.0 0.00 0.00 0.00 77 1008.2
20260505005314 78 360 8.0 12.0 0.00 0.00 0.00 77 1008.3
20260505004814 78 360 7.0 12.0 0.00 0.00 0.00 76 1008.4
20260505004313 79 360 7.0 18.0 0.00 0.00 0.00 75 1008.4
20260505003831 79 360 9.0 18.0 0.00 0.00 0.00 75 1008.3
20260505003325 79 360 11.0 17.0 0.00 0.00 0.00 74 1008.3
20260505002825 80 360 10.0 20.0 0.00 0.00 0.00 73 1008.2
20260505002319 80 360 6.0 13.0 0.00 0.00 0.00 73 1008.2
20260505001820 80 360 8.0 14.0 0.00 0.00 0.00 72 1008.2
20260505001340 80 360 7.0 14.0 0.00 0.00 0.00 72 1008.4
20260505000818 80 360 8.0 14.0 0.00 0.00 0.00 71 1008.4
20260505000318 80 360 7.0 20.0 0.00 0.00 0.00 71 1008.5
20260504235817 80 360 7.0 20.0 0.00 0.00 0.00 71 1008.5
20260504235318 81 360 6.0 14.0 0.00 0.00 0.00 71 1008.4
20260504234816 81 360 7.0 14.0 0.00 0.00 0.00 70 1008.6
20260504234315 81 360 7.0 12.0 0.00 0.00 0.00 70 1008.6
20260504233813 81 360 6.0 16.0 0.00 0.00 0.00 69 1008.7
20260504233313 81 360 8.0 16.0 0.00 0.00 0.00 68 1008.7
20260504232813 82 360 7.0 19.0 0.00 0.00 0.00 68 1008.7
20260504232331 82 360 9.0 19.0 0.00 0.00 0.00 67 1008.6
20260504231831 83 360 9.0 16.0 0.00 0.00 0.00 66 1008.8
20260504231350 83 360 8.0 18.0 0.00 0.00 0.00 66 1008.9
20260504230824 83 360 10.0 18.0 0.00 0.00 0.00 65 1008.9
20260504225336 84 360 7.0 18.0 0.00 0.00 0.00 64 1009.0
20260504224814 85 360 9.0 18.0 0.00 0.00 0.00 63 1009.2
20260504224313 85 360 7.0 16.0 0.00 0.00 0.00 64 1009.1
20260504223831 84 360 7.0 16.0 0.00 0.00 0.00 64 1009.2
20260504223352 84 360 7.0 21.0 0.00 0.00 0.00 64 1009.2
20260504222849 84 360 8.0 21.0 0.00 0.00 0.00 63 1009.3
20260504222327 84 360 7.0 17.0 0.00 0.00 0.00 64 1009.4
20260504221846 83 360 8.0 17.0 0.00 0.00 0.00 66 1009.4
20260504221340 82 360 8.0 17.0 0.00 0.00 0.00 65 1009.5
20260504220817 83 360 8.0 17.0 0.00 0.00 0.00 65 1009.4
20260504220317 83 360 5.0 19.0 0.00 0.00 0.00 66 1009.4
20260504215837 83 360 9.0 19.0 0.00 0.00 0.00 66 1009.4
20260504213826 82 360 7.0 14.0 0.00 0.00 0.00 66 1009.7
20260504213324 83 360 7.0 17.0 0.00 0.00 0.00 65 1009.7
20260504212824 83 360 11.0 17.0 0.00 0.00 0.00 65 1009.8
20260504212344 84 360 8.0 15.0 0.00 0.00 0.00 64 1009.8
20260504211842 84 360 8.0 15.0 0.00 0.00 0.00 63 1009.9
20260504211319 85 360 5.0 13.0 0.00 0.00 0.00 65 1009.9
20260504210819 84 360 4.0 11.0 0.00 0.00 0.00 63 1010.0
20260504210318 84 360 6.0 20.0 0.00 0.00 0.00 63 1010.0
20260504205818 85 360 9.0 20.0 0.00 0.00 0.00 61 1010.2
20260504205318 85 360 6.0 17.0 0.00 0.00 0.00 62 1010.3
20260504204836 85 360 10.0 16.0 0.00 0.00 0.00 62 1010.4
20260504204313 85 360 3.0 17.0 0.00 0.00 0.00 63 1010.4
20260504203831 85 360 9.0 17.0 0.00 0.00 0.00 62 1010.5
20260504203332 84 360 8.0 17.0 0.00 0.00 0.00 62 1010.7
20260504202831 84 360 9.0 15.0 0.00 0.00 0.00 64 1010.7
20260504202330 85 360 8.0 14.0 0.00 0.00 0.00 62 1010.9
20260504201829 85 360 7.0 17.0 0.00 0.00 0.00 63 1010.9
20260504201328 84 360 9.0 17.0 0.00 0.00 0.00 63 1010.9
20260504200821 83 360 6.0 19.0 0.00 0.00 0.00 66 1011.2
20260504200320 83 360 11.0 19.0 0.00 0.00 0.00 63 1011.3
20260504195820 83 360 4.0 15.0 0.00 0.00 0.00 65 1011.3
20260504195316 84 360 9.0 14.0 0.00 0.00 0.00 64 1011.3
20260504194816 83 360 8.0 16.0 0.00 0.00 0.00 65 1011.4
20260504194336 83 360 5.0 17.0 0.00 0.00 0.00 65 1011.4
20260504193813 83 360 7.0 15.0 0.00 0.00 0.00 63 1011.6
20260504193352 84 360 6.0 15.0 0.00 0.00 0.00 63 1011.7
20260504192823 84 360 8.0 15.0 0.00 0.00 0.00 64 1011.8
20260504192323 83 360 5.0 17.0 0.00 0.00 0.00 65 1011.8
20260504191841 83 360 12.0 17.0 0.00 0.00 0.00 65 1011.8
20260504191319 83 360 7.0 12.0 0.00 0.00 0.00 64 1011.9
20260504190819 84 360 7.0 15.0 0.00 0.00 0.00 63 1011.9
20260504190313 84 360 6.0 15.0 0.00 0.00 0.00 61 1011.8
20260504185832 84 360 5.0 13.0 0.00 0.00 0.00 62 1012.0
20260504185329 84 360 6.0 15.0 0.00 0.00 0.00 61 1012.1
20260504184827 84 360 4.0 17.0 0.00 0.00 0.00 64 1012.1
20260504184327 84 360 7.0 17.0 0.00 0.00 0.00 62 1012.3
20260504183826 84 360 5.0 14.0 0.00 0.00 0.00 63 1012.2
20260504183325 83 360 5.0 16.0 0.00 0.00 0.00 64 1012.4
20260504182825 83 360 6.0 16.0 0.00 0.00 0.00 62 1012.5
20260504182313 83 360 8.0 16.0 0.00 0.00 0.00 64 1012.4
20260504181829 82 360 8.0 18.0 0.00 0.00 0.00 64 1012.5
20260504181328 82 360 10.0 18.0 0.00 0.00 0.00 65 1012.5
20260504180846 83 360 7.0 15.0 0.00 0.00 0.00 66 1012.6
20260504180329 81 360 5.0 11.0 0.00 0.00 0.00 66 1012.8
20260504175819 81 360 6.0 13.0 0.00 0.00 0.00 68 1012.8
20260504175317 81 360 6.0 13.0 0.00 0.00 0.00 67 1013.0
20260504174816 81 360 6.0 13.0 0.00 0.00 0.00 67 1013.3
20260504174314 81 360 5.0 12.0 0.00 0.00 0.00 68 1013.3
20260504173831 80 360 3.0 17.0 0.00 0.00 0.00 68 1013.3
20260504173330 80 360 11.0 17.0 0.00 0.00 0.00 68 1013.4
20260504172829 79 360 4.0 13.0 0.00 0.00 0.00 70 1013.4
20260504172315 80 360 6.0 18.0 0.00 0.00 0.00 68 1013.5
20260504171853 80 360 5.0 18.0 0.00 0.00 0.00 70 1013.4
20260504171331 80 360 8.0 18.0 0.00 0.00 0.00 69 1013.7
20260504170845 79 360 5.0 15.0 0.00 0.00 0.00 71 1013.6
20260504170317 78 360 6.0 15.0 0.00 0.00 0.00 72 1013.8
20260504160327 76 360 6.0 15.0 0.00 0.00 0.00 74 1014.3
20260504150820 74 360 8.0 17.0 0.00 0.00 0.00 74 1014.6
20260504150320 74 360 10.0 18.0 0.00 0.00 0.00 74 1014.5
20260504141313 70 360 4.0 12.0 0.00 0.00 0.00 78 1014.9
20260504140851 70 360 7.0 14.0 0.00 0.00 0.00 78 1014.9
20260504140330 70 360 7.0 14.0 0.00 0.00 0.00 77 1014.8
20260504130815 62 360 3.0 5.0 0.00 0.00 0.00 95 1014.9
20260504130314 61 360 3.0 5.0 0.00 0.00 0.00 96 1015.0
20260504110350 56 360 0.0 0.0 0.00 0.01 0.00 94 1014.5
20260504100313 58 360 0.0 0.0 0.00 0.01 0.00 91 1014.7
20260504081831 61 360 1.0 2.0 0.00 0.01 0.00 85 1015.2
20260504081331 62 360 0.0 2.0 0.00 0.01 0.00 84 1015.2
20260504080831 62 360 0.0 2.0 0.00 0.01 0.00 84 1015.3
20260504080331 62 360 1.0 2.0 0.00 0.01 0.00 83 1015.2
20260504050326 66 360 4.0 9.0 0.00 0.01 0.00 74 1017.1
20260504045826 66 360 4.0 12.0 0.00 0.01 0.01 74 1017.1
20260504045326 67 360 5.0 12.0 0.00 0.01 0.01 74 1017.2
20260504044827 67 360 5.0 12.0 0.00 0.01 0.01 73 1017.0
20260504044330 67 360 5.0 9.0 0.00 0.01 0.01 73 1017.1
20260504043829 67 360 4.0 9.0 0.00 0.01 0.01 73 1017.3
20260504043330 67 360 4.0 9.0 0.00 0.01 0.01 72 1017.4
20260504042831 67 360 6.0 11.0 0.00 0.01 0.01 72 1017.3
20260504042313 67 360 5.0 11.0 0.00 0.01 0.01 72 1017.4
20260504041812 67 360 5.0 11.0 0.00 0.01 0.01 72 1017.4
20260504041331 67 360 4.0 10.0 0.00 0.01 0.01 72 1017.5
20260504040812 67 360 5.0 10.0 0.00 0.01 0.01 72 1017.5
20260504040313 67 360 5.0 9.0 0.00 0.01 0.01 71 1017.5
20260504035830 67 360 4.0 9.0 0.00 0.01 0.01 71 1017.6
20260504035330 67 360 5.0 9.0 0.00 0.01 0.01 71 1017.4
20260504034829 67 360 4.0 10.0 0.00 0.01 0.01 71 1017.4
20260504034350 67 360 4.0 11.0 0.00 0.01 0.01 71 1017.3
20260504033829 67 360 5.0 11.0 0.00 0.01 0.01 71 1017.3
20260504033328 67 360 4.0 10.0 0.00 0.01 0.01 71 1017.3
20260504032828 67 360 5.0 9.0 0.00 0.01 0.01 71 1017.4
20260504032327 67 360 4.0 11.0 0.00 0.01 0.01 71 1017.4
20260504031825 67 360 4.0 11.0 0.00 0.01 0.01 72 1017.4
20260504031323 67 360 3.0 9.0 0.00 0.01 0.01 72 1017.4
20260504030824 67 360 4.0 9.0 0.00 0.01 0.01 71 1017.3
20260504030345 67 360 4.0 9.0 0.00 0.01 0.01 71 1017.2
20260504025821 66 360 4.0 9.0 0.00 0.01 0.01 72 1017.1
20260504025321 66 360 3.0 6.0 0.00 0.01 0.01 72 1017.1
20260504024821 65 360 3.0 6.0 0.00 0.01 0.01 73 1017.1
20260504024322 65 360 3.0 6.0 0.00 0.01 0.01 74 1017.1
20260504023822 64 360 3.0 8.0 0.00 0.01 0.01 75 1017.1
20260504023320 64 360 3.0 6.0 0.00 0.01 0.01 78 1017.1
20260504022820 64 360 3.0 5.0 0.00 0.01 0.01 80 1017.0
20260504022339 64 360 1.0 4.0 0.00 0.01 0.01 79 1017.1
20260504021818 65 360 0.0 0.0 0.00 0.01 0.01 79 1017.0
20260504021337 65 360 0.0 0.0 0.00 0.01 0.01 77 1016.8
20260504020817 65 360 0.0 0.0 0.00 0.01 0.01 76 1016.7
20260504020338 66 360 0.0 0.0 0.00 0.01 0.01 76 1016.6
20260504015817 66 360 0.0 1.0 0.00 0.01 0.01 74 1016.6
20260504015338 67 360 0.0 1.0 0.00 0.01 0.01 73 1016.4
20260504014817 67 360 0.0 1.0 0.00 0.01 0.01 71 1016.4
20260504014316 68 360 0.0 0.0 0.00 0.01 0.01 71 1016.4
20260504013817 68 360 0.0 0.0 0.00 0.01 0.01 70 1016.3
20260504013316 69 360 0.0 0.0 0.00 0.01 0.01 67 1016.3
20260504012815 69 360 0.0 1.0 0.00 0.01 0.01 66 1016.3
20260504012314 70 360 0.0 1.0 0.00 0.01 0.01 64 1016.2
20260504011815 71 360 0.0 0.0 0.00 0.01 0.01 62 1016.3